| time (UTC) | temp C | wind direction | speed KPH | gust KPH | rain 1hr cm | rain 24hr cm | rain mn cm | humidity % | barometer mb |
| 20260504210229 | 28 | 184 | 0.0 | 1.6 | 0.00 | 0.00 | 0.00 | 85 | 1007.5 |
| 20260504205728 | 28 | 156 | 3.2 | 8.0 | 0.00 | 0.00 | 0.00 | 85 | 1007.1 |
| 20260504205228 | 28 | 156 | 4.8 | 8.0 | 0.00 | 0.00 | 0.00 | 85 | 1007.1 |
| 20260504204730 | 28 | 186 | 4.8 | 4.8 | 0.00 | 0.00 | 0.00 | 85 | 1007.5 |
| 20260504204227 | 28 | 141 | 1.6 | 8.0 | 0.00 | 0.00 | 0.00 | 85 | 1007.5 |
| 20260504203727 | 28 | 168 | 4.8 | 8.0 | 0.00 | 0.00 | 0.00 | 85 | 1007.5 |
| 20260504203229 | 28 | 142 | 1.6 | 8.0 | 0.00 | 0.00 | 0.00 | 85 | 1007.5 |
| 20260504202727 | 28 | 177 | 1.6 | 8.0 | 0.00 | 0.00 | 0.00 | 85 | 1007.5 |
| 20260504202231 | 28 | 165 | 1.6 | 8.0 | 0.00 | 0.00 | 0.00 | 85 | 1007.5 |
| 20260504201728 | 28 | 110 | 3.2 | 8.0 | 0.00 | 0.00 | 0.00 | 85 | 1007.5 |
| 20260504201227 | 28 | 193 | 3.2 | 4.8 | 0.00 | 0.00 | 0.00 | 84 | 1007.5 |
| 20260504200729 | 28 | 184 | 0.0 | 4.8 | 0.00 | 0.00 | 0.00 | 84 | 1007.5 |
| 20260504200229 | 28 | 153 | 1.6 | 8.0 | 0.00 | 0.00 | 0.00 | 84 | 1007.8 |
| 20260504195731 | 28 | 183 | 3.2 | 8.0 | 0.00 | 0.00 | 0.00 | 84 | 1007.8 |
| 20260504195228 | 28 | 193 | 3.2 | 4.8 | 0.00 | 0.00 | 0.00 | 84 | 1007.8 |
| 20260504194727 | 28 | 222 | 1.6 | 3.2 | 0.00 | 0.00 | 0.00 | 84 | 1007.8 |
| 20260504194228 | 28 | 164 | 1.6 | 8.0 | 0.00 | 0.00 | 0.00 | 84 | 1007.5 |
| 20260504193727 | 28 | 154 | 6.4 | 8.0 | 0.00 | 0.00 | 0.00 | 84 | 1007.8 |
| 20260504193227 | 28 | 169 | 4.8 | 4.8 | 0.00 | 0.00 | 0.00 | 84 | 1007.8 |
| 20260504192727 | 28 | 167 | 3.2 | 4.8 | 0.00 | 0.00 | 0.00 | 84 | 1007.5 |
| 20260504192227 | 28 | 186 | 1.6 | 4.8 | 0.00 | 0.00 | 0.00 | 83 | 1007.5 |
| 20260504191727 | 28 | 168 | 0.0 | 1.6 | 0.00 | 0.00 | 0.00 | 83 | 1007.5 |
| 20260504191227 | 28 | 171 | 0.0 | 3.2 | 0.00 | 0.00 | 0.00 | 84 | 1007.5 |
| 20260504190729 | 28 | 198 | 4.8 | 9.7 | 0.00 | 0.00 | 0.00 | 83 | 1007.5 |
| 20260504190228 | 28 | 206 | 0.0 | 3.2 | 0.00 | 0.00 | 0.00 | 83 | 1007.8 |
| 20260504185727 | 28 | 112 | 1.6 | 3.2 | 0.00 | 0.00 | 0.00 | 83 | 1007.5 |
| 20260504185231 | 28 | 118 | 0.0 | 1.6 | 0.00 | 0.00 | 0.00 | 83 | 1007.5 |
| 20260504184728 | 28 | 105 | 0.0 | 3.2 | 0.00 | 0.00 | 0.00 | 82 | 1007.5 |
| 20260504184229 | 28 | 99 | 0.0 | 1.6 | 0.00 | 0.00 | 0.00 | 82 | 1007.5 |
| 20260504183727 | 28 | 100 | 1.6 | 4.8 | 0.00 | 0.00 | 0.00 | 83 | 1007.5 |
| 20260504183228 | 28 | 157 | 3.2 | 4.8 | 0.00 | 0.00 | 0.00 | 83 | 1007.8 |
| 20260504182730 | 28 | 114 | 0.0 | 1.6 | 0.00 | 0.00 | 0.00 | 82 | 1007.5 |
| 20260504182229 | 29 | 202 | 1.6 | 3.2 | 0.00 | 0.00 | 0.00 | 82 | 1007.5 |
| 20260504181729 | 29 | 148 | 0.0 | 3.2 | 0.00 | 0.00 | 0.00 | 82 | 1007.5 |
| 20260504181227 | 28 | 91 | 0.0 | 3.2 | 0.00 | 0.00 | 0.00 | 82 | 1007.5 |
| 20260504180729 | 29 | 165 | 4.8 | 8.0 | 0.00 | 0.00 | 0.00 | 82 | 1007.8 |
| 20260504180228 | 29 | 196 | 1.6 | 3.2 | 0.00 | 0.00 | 0.00 | 82 | 1007.8 |
| 20260504175729 | 29 | 167 | 1.6 | 1.6 | 0.00 | 0.00 | 0.00 | 82 | 1007.8 |
| 20260504175227 | 29 | 136 | 0.0 | 1.6 | 0.00 | 0.00 | 0.00 | 82 | 1007.8 |
| 20260504174727 | 29 | 137 | 1.6 | 1.6 | 0.00 | 0.00 | 0.00 | 82 | 1007.8 |
| 20260504174228 | 29 | 164 | 0.0 | 3.2 | 0.00 | 0.00 | 0.00 | 82 | 1007.8 |
| 20260504173727 | 29 | 184 | 1.6 | 4.8 | 0.00 | 0.00 | 0.00 | 82 | 1007.8 |
| 20260504173227 | 29 | 196 | 1.6 | 4.8 | 0.00 | 0.00 | 0.00 | 82 | 1007.8 |
| 20260504172728 | 29 | 175 | 3.2 | 8.0 | 0.00 | 0.00 | 0.00 | 82 | 1008.1 |
| 20260504172229 | 29 | 167 | 4.8 | 4.8 | 0.00 | 0.00 | 0.00 | 82 | 1008.1 |
| 20260504171727 | 29 | 163 | 1.6 | 3.2 | 0.00 | 0.00 | 0.00 | 82 | 1008.1 |
| 20260504171231 | 29 | 172 | 1.6 | 3.2 | 0.00 | 0.00 | 0.00 | 81 | 1007.8 |
| 20260504170731 | 29 | 191 | 1.6 | 3.2 | 0.00 | 0.00 | 0.00 | 81 | 1007.8 |
| 20260504170230 | 29 | 143 | 1.6 | 8.0 | 0.00 | 0.00 | 0.00 | 81 | 1007.8 |
| 20260504160229 | 29 | 130 | 3.2 | 3.2 | 0.00 | 0.00 | 0.00 | 81 | 1007.1 |
| 20260504150727 | 30 | 84 | 4.8 | 8.0 | 0.00 | 0.00 | 0.00 | 76 | 1006.1 |
| 20260504150228 | 30 | 85 | 0.0 | 3.2 | 0.00 | 0.00 | 0.00 | 75 | 1006.1 |
| 20260504141230 | 30 | 102 | 0.0 | 4.8 | 0.00 | 0.00 | 0.00 | 72 | 1005.8 |
| 20260504140727 | 30 | 123 | 1.6 | 3.2 | 0.00 | 0.00 | 0.00 | 72 | 1005.4 |
| 20260504140228 | 30 | 75 | 0.0 | 4.8 | 0.00 | 0.00 | 0.00 | 72 | 1005.1 |
| 20260504130727 | 30 | 102 | 4.8 | 8.0 | 0.00 | 0.00 | 0.00 | 69 | 1004.7 |
| 20260504130230 | 31 | 101 | 4.8 | 11.3 | 0.00 | 0.00 | 0.00 | 69 | 1004.4 |
| 20260504120228 | 32 | 125 | 1.6 | 16.1 | 0.00 | 0.00 | 0.00 | 63 | 1004.1 |
| 20260504110227 | 33 | 214 | 11.3 | 12.9 | 0.00 | 0.00 | 0.00 | 54 | 1004.1 |
| 20260504100229 | 36 | 168 | 6.4 | 12.9 | 0.00 | 0.00 | 0.00 | 47 | 1004.4 |
| 20260504081730 | 37 | 195 | 4.8 | 9.7 | 0.00 | 0.00 | 0.00 | 42 | 1005.8 |
| 20260504081227 | 37 | 187 | 4.8 | 8.0 | 0.00 | 0.00 | 0.00 | 42 | 1005.8 |
| 20260504080727 | 37 | 243 | 4.8 | 12.9 | 0.00 | 0.00 | 0.00 | 39 | 1005.8 |
| 20260504080229 | 37 | 125 | 6.4 | 12.9 | 0.00 | 0.00 | 0.00 | 38 | 1006.1 |
| 20260504070228 | 37 | 257 | 4.8 | 8.0 | 0.00 | 0.00 | 0.00 | 44 | 1006.8 |
| 20260504060227 | 36 | 196 | 1.6 | 4.8 | 0.00 | 0.00 | 0.00 | 48 | 1007.8 |
| 20260504050727 | 35 | 283 | 6.4 | 9.7 | 0.00 | 0.00 | 0.00 | 51 | 1008.1 |
| 20260504050228 | 34 | 280 | 4.8 | 9.7 | 0.00 | 0.00 | 0.00 | 52 | 1008.1 |
| 20260504045727 | 34 | 209 | 3.2 | 9.7 | 0.00 | 0.00 | 0.00 | 54 | 1008.1 |
| 20260504044752 | 33 | 212 | 1.6 | 12.9 | 0.00 | 0.00 | 0.00 | 55 | 1008.5 |
| 20260504044228 | 34 | 230 | 4.8 | 16.1 | 0.00 | 0.00 | 0.00 | 53 | 1008.5 |
| 20260504043728 | 34 | 168 | 4.8 | 11.3 | 0.00 | 0.00 | 0.00 | 52 | 1008.5 |
| 20260504043228 | 35 | 232 | 11.3 | 14.5 | 0.00 | 0.00 | 0.00 | 52 | 1008.5 |
| 20260504042730 | 34 | 234 | 3.2 | 9.7 | 0.00 | 0.00 | 0.00 | 53 | 1008.5 |
| 20260504042229 | 33 | 269 | 4.8 | 11.3 | 0.00 | 0.00 | 0.00 | 53 | 1008.1 |
| 20260504041728 | 33 | 255 | 1.6 | 11.3 | 0.00 | 0.00 | 0.00 | 56 | 1008.5 |
| 20260504041230 | 33 | 307 | 3.2 | 8.0 | 0.00 | 0.00 | 0.00 | 57 | 1008.5 |
| 20260504040727 | 33 | 289 | 6.4 | 9.7 | 0.00 | 0.00 | 0.00 | 58 | 1008.5 |
| 20260504040227 | 33 | 183 | 4.8 | 4.8 | 0.00 | 0.00 | 0.00 | 59 | 1008.5 |
| 20260504035728 | 32 | 250 | 4.8 | 8.0 | 0.00 | 0.00 | 0.00 | 59 | 1008.5 |
| 20260504035227 | 32 | 260 | 6.4 | 9.7 | 0.00 | 0.00 | 0.00 | 60 | 1008.5 |
| 20260504034727 | 32 | 267 | 1.6 | 8.0 | 0.00 | 0.00 | 0.00 | 61 | 1008.5 |
| 20260504034227 | 32 | 258 | 1.6 | 4.8 | 0.00 | 0.00 | 0.00 | 62 | 1008.5 |
| 20260504033727 | 32 | 250 | 3.2 | 9.7 | 0.00 | 0.00 | 0.00 | 64 | 1008.5 |
| 20260504033230 | 32 | 316 | 3.2 | 9.7 | 0.00 | 0.00 | 0.00 | 64 | 1008.5 |
| 20260504032728 | 32 | 327 | 4.8 | 8.0 | 0.00 | 0.00 | 0.00 | 64 | 1008.8 |
| 20260504032228 | 31 | 243 | 0.0 | 4.8 | 0.00 | 0.00 | 0.00 | 66 | 1008.5 |
| 20260504031727 | 31 | 203 | 3.2 | 9.7 | 0.00 | 0.00 | 0.00 | 67 | 1008.5 |
| 20260504031227 | 31 | 283 | 3.2 | 8.0 | 0.00 | 0.00 | 0.00 | 66 | 1008.5 |
| 20260504030727 | 31 | 263 | 3.2 | 3.2 | 0.00 | 0.00 | 0.00 | 66 | 1008.5 |
| 20260504030228 | 31 | 244 | 1.6 | 8.0 | 0.00 | 0.00 | 0.00 | 67 | 1008.5 |
| 20260504025727 | 31 | 266 | 1.6 | 8.0 | 0.00 | 0.00 | 0.00 | 68 | 1008.5 |
| 20260504025228 | 31 | 244 | 3.2 | 9.7 | 0.00 | 0.00 | 0.00 | 68 | 1008.1 |
| 20260504024727 | 31 | 247 | 6.4 | 9.7 | 0.00 | 0.00 | 0.00 | 74 | 1007.8 |
| 20260504024227 | 31 | 147 | 6.4 | 9.7 | 0.00 | 0.00 | 0.00 | 74 | 1008.1 |
| 20260504023727 | 31 | 142 | 6.4 | 12.9 | 0.00 | 0.00 | 0.00 | 74 | 1007.8 |
| 20260504023227 | 31 | 172 | 6.4 | 9.7 | 0.00 | 0.00 | 0.00 | 74 | 1007.8 |
| 20260504022728 | 30 | 212 | 3.2 | 8.0 | 0.00 | 0.00 | 0.00 | 72 | 1007.8 |
| 20260504022228 | 30 | 192 | 1.6 | 8.0 | 0.00 | 0.00 | 0.00 | 72 | 1007.5 |
| 20260504021727 | 30 | 250 | 0.0 | 1.6 | 0.00 | 0.00 | 0.00 | 72 | 1007.5 |
| 20260504021227 | 30 | 251 | 1.6 | 1.6 | 0.00 | 0.00 | 0.00 | 72 | 1007.5 |
| 20260504020727 | 29 | 262 | 0.0 | 1.6 | 0.00 | 0.00 | 0.00 | 72 | 1007.5 |
| 20260504020227 | 29 | 280 | 1.6 | 1.6 | 0.00 | 0.00 | 0.00 | 72 | 1007.5 |
| 20260504015727 | 29 | 281 | 3.2 | 3.2 | 0.00 | 0.00 | 0.00 | 72 | 1007.1 |
| 20260504015227 | 28 | 259 | 0.0 | 4.8 | 0.00 | 0.00 | 0.00 | 74 | 1007.1 |
| 20260504014727 | 28 | 262 | 0.0 | 4.8 | 0.00 | 0.00 | 0.00 | 77 | 1007.5 |
| 20260504014227 | 28 | 269 | 0.0 | 0.0 | 0.00 | 0.00 | 0.00 | 78 | 1007.1 |
| 20260504013728 | 28 | 316 | 0.0 | 3.2 | 0.00 | 0.00 | 0.00 | 78 | 1007.5 |
| 20260504013228 | 28 | 285 | 4.8 | 4.8 | 0.00 | 0.00 | 0.00 | 78 | 1007.5 |
| 20260504012727 | 28 | 294 | 1.6 | 4.8 | 0.00 | 0.00 | 0.00 | 78 | 1007.5 |
| 20260504012227 | 28 | 280 | 0.0 | 1.6 | 0.00 | 0.00 | 0.00 | 79 | 1007.5 |
| 20260504011728 | 28 | 250 | 0.0 | 1.6 | 0.00 | 0.00 | 0.00 | 80 | 1007.1 |
| 20260504011227 | 28 | 258 | 0.0 | 3.2 | 0.00 | 0.00 | 0.00 | 80 | 1007.1 |
| 20260504010727 | 28 | 244 | 0.0 | 1.6 | 0.00 | 0.00 | 0.00 | 80 | 1007.1 |
| 20260504010227 | 28 | 244 | 0.0 | 1.6 | 0.00 | 0.00 | 0.00 | 80 | 1007.1 |
| 20260504005727 | 28 | 240 | 0.0 | 1.6 | 0.00 | 0.00 | 0.00 | 80 | 1007.1 |
| 20260504005227 | 27 | 231 | 1.6 | 1.6 | 0.00 | 0.00 | 0.00 | 80 | 1006.8 |
| 20260504004727 | 27 | 230 | 1.6 | 1.6 | 0.00 | 0.00 | 0.00 | 80 | 1006.8 |
| 20260504004227 | 27 | 232 | 0.0 | 0.0 | 0.00 | 0.00 | 0.00 | 80 | 1006.8 |
| 20260504003727 | 27 | 233 | 0.0 | 0.0 | 0.00 | 0.00 | 0.00 | 80 | 1006.8 |
| 20260504003227 | 27 | 233 | 0.0 | 0.0 | 0.00 | 0.00 | 0.00 | 80 | 1006.8 |
| 20260504002727 | 27 | 254 | 0.0 | 1.6 | 0.00 | 0.00 | 0.00 | 80 | 1006.8 |
| 20260504002227 | 27 | 254 | 1.6 | 1.6 | 0.00 | 0.00 | 0.00 | 80 | 1006.8 |
| 20260504001728 | 27 | 251 | 0.0 | 1.6 | 0.00 | 0.00 | 0.00 | 80 | 1006.8 |
| 20260504001227 | 27 | 251 | 1.6 | 1.6 | 0.00 | 0.00 | 0.00 | 81 | 1006.8 |
| 20260504000728 | 27 | 238 | 0.0 | 1.6 | 0.00 | 0.00 | 0.00 | 81 | 1006.8 |
| 20260504000227 | 27 | 252 | 0.0 | 1.6 | 0.00 | 0.00 | 0.00 | 81 | 1006.8 |
| 20260503235727 | 27 | 254 | 1.6 | 3.2 | 0.00 | 0.00 | 0.00 | 82 | 1006.4 |
| 20260503235228 | 27 | 254 | 0.0 | 1.6 | 0.00 | 0.00 | 0.00 | 82 | 1006.1 |
| 20260503234727 | 27 | 200 | 0.0 | 0.0 | 0.00 | 0.00 | 0.00 | 82 | 1006.4 |
| 20260503234227 | 27 | 199 | 0.0 | 1.6 | 0.00 | 0.00 | 0.00 | 82 | 1006.4 |
| 20260503233728 | 27 | 197 | 0.0 | 1.6 | 0.00 | 0.00 | 0.00 | 82 | 1006.1 |
| 20260503233228 | 27 | 172 | 0.0 | 1.6 | 0.00 | 0.00 | 0.00 | 82 | 1006.4 |
| 20260503232726 | 27 | 172 | 1.6 | 1.6 | 0.00 | 0.00 | 0.00 | 81 | 1006.1 |
| 20260503232228 | 27 | 172 | 0.0 | 0.0 | 0.00 | 0.00 | 0.00 | 81 | 1006.1 |
| 20260503231727 | 27 | 172 | 1.6 | 1.6 | 0.00 | 0.00 | 0.00 | 80 | 1005.8 |
| 20260503231227 | 27 | 171 | 0.0 | 1.6 | 0.00 | 0.00 | 0.00 | 80 | 1005.8 |
| 20260503230728 | 27 | 171 | 0.0 | 0.0 | 0.00 | 0.00 | 0.00 | 80 | 1005.8 |
| 20260503230228 | 27 | 149 | 0.0 | 1.6 | 0.00 | 0.00 | 0.00 | 80 | 1005.8 |
| 20260503225728 | 27 | 203 | 0.0 | 1.6 | 0.00 | 0.00 | 0.00 | 79 | 1005.8 |
| 20260503225227 | 27 | 261 | 0.0 | 3.2 | 0.00 | 0.00 | 0.00 | 79 | 1005.8 |
| 20260503224727 | 27 | 238 | 1.6 | 1.6 | 0.00 | 0.00 | 0.00 | 79 | 1005.8 |
| 20260503224227 | 27 | 262 | 1.6 | 3.2 | 0.00 | 0.00 | 0.00 | 79 | 1005.8 |
| 20260503223727 | 27 | 254 | 0.0 | 3.2 | 0.00 | 0.00 | 0.00 | 79 | 1005.8 |
| 20260503223226 | 27 | 259 | 0.0 | 4.8 | 0.00 | 0.00 | 0.00 | 78 | 1005.8 |
| 20260503222727 | 27 | 236 | 0.0 | 3.2 | 0.00 | 0.00 | 0.00 | 78 | 1005.8 |
| 20260503222227 | 27 | 254 | 0.0 | 1.6 | 0.00 | 0.00 | 0.00 | 78 | 1005.4 |
| 20260503221727 | 27 | 110 | 0.0 | 1.6 | 0.00 | 0.00 | 0.00 | 78 | 1005.8 |
| 20260503221227 | 27 | 105 | 0.0 | 0.0 | 0.00 | 0.00 | 0.00 | 78 | 1005.4 |
| 20260503220729 | 27 | 105 | 0.0 | 0.0 | 0.00 | 0.00 | 0.00 | 77 | 1005.4 |
| 20260503220227 | 27 | 104 | 0.0 | 3.2 | 0.00 | 0.00 | 0.00 | 77 | 1005.4 |
| 20260503215727 | 27 | 77 | 0.0 | 3.2 | 0.00 | 0.00 | 0.00 | 77 | 1005.1 |
| 20260503215227 | 27 | 58 | 0.0 | 1.6 | 0.00 | 0.00 | 0.00 | 77 | 1005.1 |
| 20260503214727 | 27 | 58 | 1.6 | 1.6 | 0.00 | 0.00 | 0.00 | 77 | 1005.4 |
| 20260503214227 | 28 | 46 | 0.0 | 0.0 | 0.00 | 0.00 | 0.00 | 77 | 1005.1 |
| 20260503213728 | 28 | 22 | 0.0 | 1.6 | 0.00 | 0.00 | 0.00 | 76 | 1005.1 |
| 20260503213227 | 28 | 22 | 0.0 | 0.0 | 0.00 | 0.00 | 0.00 | 76 | 1005.1 |
| 20260503212727 | 28 | 21 | 0.0 | 1.6 | 0.00 | 0.00 | 0.00 | 76 | 1004.7 |
| 20260503212227 | 28 | 350 | 0.0 | 1.6 | 0.00 | 0.00 | 0.00 | 75 | 1004.7 |
| 20260503211727 | 28 | 349 | 0.0 | 0.0 | 0.00 | 0.00 | 0.00 | 75 | 1004.7 |
| 20260503211227 | 28 | 349 | 0.0 | 1.6 | 0.00 | 0.00 | 0.00 | 75 | 1004.7 |
| 20260503210727 | 28 | 350 | 0.0 | 1.6 | 0.00 | 0.00 | 0.00 | 75 | 1004.7 |